Location: Coupvray
(48.8929°N, 2.7967°E)
Time: 23:19:45
(UTC+00:00)

Cosmos 1241 Rocket - Pass Details

Date: 07 November 2020
Orbit: 929 x 1018 km, 65.8° (Epoch: 28 November)

Event Time Altitude Azimuth Distance (km) Brightness Sun altitude
Rises 18:04:46 0° 296° (WNW) 3,703 8.6 -17.6°
Reaches altitude 10° 18:08:20 10° 315° (NW) 2,772 7.4 -18.2°
Maximum altitude 18:12:36 18° 356° (N) 2,265 6.4 -18.9°
Enters shadow 18:16:11 12° 32° (NNE) 2,649 6.4 -19.5°
